Flag for Canada Weather past 2 weeks in Prince George, British Columbia, Canada

Now
55 °F

Partly sunny.


Feels Like: 53 °F
Forecast: 28 / 58 °F
Wind: 9 mph from South

Location: Prince George

Current Time: May 3, 2015 at 1:55:46 PM

Latest Report: May 3, 2015 at 1:00 PM


Visibility: 9 mi

Pressure: 30.04 "Hg

Humidity: 31%

Dew point: 25 °F

Location of Prince GeorgeLocation

Historic Weather in Prince George — Graph

°F

Prince George temperature yesterday

Maximum temperature yesterday: 50 °F (at 1:00 PM)
Minimum temperature yesterday: 30 °F (at 6:00 AM)
Average temperature yesterday: 41 °F

Past Weeks' High & Low Weather Summary

 TemperatureHumidityPressure
High68 °F (Apr 20, 5:00 PM)100% (Apr 23, 12:00 AM)30.47 "Hg (Apr 23, 12:00 AM)
Low23 °F (Apr 19, 6:00 AM)24% (Apr 28, 7:00 PM)29.61 "Hg (Apr 28, 7:53 AM)
Average44 °F69%29.96 "Hg
* Reported Apr 18 1:00 PM — May 3 1:00 PM, Prince George, Weather by CustomWeather, © 2015

Note: Actual official high and low records may vary slightly from our data, if they occured in-between our weather recording intervals... More about our weather records

Advertising

Prince George weather history for previous 24 hours

 ConditionsComfort  
Time TempWeatherWind HumidityBarometerVisibility
1:00 PM
Sun, May 3
55 °FPartly sunny.9 mph31%30.04 "Hg9 mi
12:00 PM52 °FPassing clouds.6 mph38%30.07 "Hg9 mi
11:00 AM48 °FPartly sunny.No wind46%30.08 "Hg9 mi
10:00 AM45 °FScattered clouds.2 mph53%30.09 "Hg9 mi
9:00 AM41 °FSunny.3 mph66%30.11 "Hg9 mi
8:00 AM34 °FSunny.5 mph81%30.12 "Hg9 mi
7:00 AM30 °FSunny.3 mph93%30.12 "Hg9 mi
6:00 AM27 °FClear.3 mph93%30.12 "Hg9 mi
5:00 AM27 °FClear.2 mph93%30.12 "Hg9 mi
4:00 AM27 °FClear.3 mph93%30.12 "Hg9 mi
3:00 AM28 °FClear.2 mph93%30.11 "Hg9 mi
2:00 AM30 °FClear.2 mph86%30.11 "Hg9 mi
1:00 AM28 °FClear.3 mph93%30.11 "Hg9 mi
12:00 AM30 °FClear.No wind86%30.10 "Hg9 mi
11:00 PM
Sat, May 2
37 °FClear.2 mph65%30.09 "Hg9 mi
10:00 PM43 °FPassing clouds.9 mph53%30.08 "Hg9 mi
9:00 PM41 °FLight rain. Cloudy.8 mph66%30.08 "Hg9 mi
8:00 PM45 °FBroken clouds.3 mph53%30.07 "Hg9 mi
7:00 PM46 °FBroken clouds.5 mph43%30.07 "Hg9 mi
6:49 PM46 °FBroken clouds.5 mph57%30.08 "Hg9 mi
6:00 PM46 °FScattered clouds.6 mph46%30.08 "Hg9 mi
5:00 PM46 °FCloudy.10 mph46%30.09 "Hg9 mi
4:00 PM43 °FLight rain. Mostly cloudy.12 mph71%30.10 "Hg9 mi
3:52 PM45 °FLight rain. Overcast.18 mph57%30.10 "Hg9 mi
3:00 PM48 °FOvercast.10 mph43%30.09 "Hg9 mi
2:00 PM50 °FPassing clouds.8 mph32%30.08 "Hg9 mi
1:00 PM50 °FPartly sunny.13 mph35%30.09 "Hg9 mi
Weather by CustomWeather, © 2015

See weather overviewHow to use our weather pages